Time,TemperatureF,DewpointF,PressureIn,WindDirection,WindDirectionDegrees,WindSpeedMPH,WindSpeedGustMPH,Humidity,HourlyPrecipIn,Conditions,Clouds,dailyrainin,SoftwareType,DateUTC
2013-02-07 00:05:00,30.6,1.3,28.14,SSE,156,1.0,4.0,28,0.00,CLR,,0.00,WeatherDisplay:10.37,2013-02-07 05:05:00,
2013-02-07 00:10:00,30.6,1.3,28.11,SE,141,2.0,4.0,28,0.00,CLR,,0.00,WeatherDisplay:10.37,2013-02-07 05:10:00,
2013-02-07 00:15:00,30.6,1.3,28.11,SE,137,2.0,4.0,28,0.00,CLR,,0.00,WeatherDisplay:10.37,2013-02-07 05:15:00,
2013-02-07 00:20:00,30.6,1.3,28.11,SE,133,0.0,5.0,28,0.00,CLR,,0.00,WeatherDisplay:10.37,2013-02-07 05:20:00,
2013-02-07 00:25:00,30.4,1.1,28.11,SE,141,0.0,2.0,28,0.00,CLR,,0.00,WeatherDisplay:10.37,2013-02-07 05:25:00,
2013-02-07 00:30:00,30.4,1.1,28.11,SSE,147,0.0,4.0,28,0.00,CLR,,0.00,WeatherDisplay:10.37,2013-02-07 05:30:00,
2013-02-07 00:35:00,30.4,1.1,28.11,SE,146,0.0,4.0,28,0.00,CLR,,0.00,WeatherDisplay:10.37,2013-02-07 05:35:00,
2013-02-07 00:40:00,30.4,2.6,28.11,SE,140,3.0,6.0,30,0.00,CLR,,0.00,WeatherDisplay:10.37,2013-02-07 05:40:00,
2013-02-07 00:45:00,30.4,2.6,28.11,SE,138,3.0,5.0,30,0.00,CLR,,0.00,WeatherDisplay:10.37,2013-02-07 05:45:00,
2013-02-07 00:50:00,30.4,2.6,28.11,SE,144,1.0,4.0,30,0.00,CLR,,0.00,WeatherDisplay:10.37,2013-02-07 05:50:00,
2013-02-07 00:55:00,30.4,2.6,28.11,SE,144,2.0,5.0,30,0.00,CLR,,0.00,WeatherDisplay:10.37,2013-02-07 05:55:00,
2013-02-07 01:00:00,30.4,2.6,28.11,SE,142,2.0,4.0,30,0.00,CLR,,0.00,WeatherDisplay:10.37,2013-02-07 06:00:00,
2013-02-07 01:05:00,30.2,2.4,28.11,SE,143,0.0,4.0,30,0.00,CLR,,0.00,WeatherDisplay:10.37,2013-02-07 06:05:00,
2013-02-07 01:10:00,30.2,2.4,28.11,SE,143,0.0,4.0,30,0.00,CLR,,0.00,WeatherDisplay:10.37,2013-02-07 06:10:00,
2013-02-07 01:15:00,30.2,2.4,28.11,SE,145,0.0,5.0,30,0.00,CLR,,0.00,WeatherDisplay:10.37,2013-02-07 06:15:00,
2013-02-07 01:20:00,30.2,2.4,28.11,SE,145,2.0,6.0,30,0.00,CLR,,0.00,WeatherDisplay:10.37,2013-02-07 06:20:00,
2013-02-07 01:25:00,30.2,2.4,28.11,SE,146,1.0,5.0,30,0.00,CLR,,0.00,WeatherDisplay:10.37,2013-02-07 06:25:00,
2013-02-07 01:35:00,30.0,3.0,28.11,ESE,108,0.0,4.0,31,0.00,CLR,,0.00,WeatherDisplay:10.37,2013-02-07 06:35:00,
2013-02-07 01:45:00,30.2,3.1,28.11,East,100,2.0,4.0,31,0.00,CLR,,0.00,WeatherDisplay:10.37,2013-02-07 06:45:00,
2013-02-07 01:50:00,30.2,3.1,28.11,East,87,3.0,5.0,31,0.00,CLR,,0.00,WeatherDisplay:10.37,2013-02-07 06:50:00,
2013-02-07 01:55:00,30.2,3.1,28.11,East,88,2.0,4.0,31,0.00,CLR,,0.00,WeatherDisplay:10.37,2013-02-07 06:55:00,
2013-02-07 02:00:00,30.4,2.6,28.11,East,87,0.0,4.0,30,0.00,CLR,,0.00,WeatherDisplay:10.37,2013-02-07 07:00:00,
2013-02-07 02:05:00,30.4,2.6,28.11,East,87,0.0,0.0,30,0.00,CLR,,0.00,WeatherDisplay:10.37,2013-02-07 07:05:00,
2013-02-07 02:10:00,30.4,2.6,28.08,East,85,1.0,4.0,30,0.00,CLR,,0.00,WeatherDisplay:10.37,2013-02-07 07:10:00,
2013-02-07 02:15:00,30.2,3.1,28.08,East,92,0.0,4.0,31,0.00,CLR,,0.00,WeatherDisplay:10.37,2013-02-07 07:15:00,
2013-02-07 02:20:00,30.0,3.0,28.08,ESE,105,0.0,3.0,31,0.00,CLR,,0.00,WeatherDisplay:10.37,2013-02-07 07:20:00,
2013-02-07 02:25:00,30.0,3.0,28.08,ESE,114,0.0,0.0,31,0.00,CLR,,0.00,WeatherDisplay:10.37,2013-02-07 07:25:00,
2013-02-07 02:30:00,29.8,2.8,28.08,ESE,114,0.0,4.0,31,0.00,CLR,,0.00,WeatherDisplay:10.37,2013-02-07 07:30:00,
2013-02-07 02:35:00,29.7,2.7,28.08,ESE,112,2.0,4.0,31,0.00,CLR,,0.00,WeatherDisplay:10.37,2013-02-07 07:35:00,
2013-02-07 02:40:00,29.7,2.7,28.08,ESE,107,0.0,4.0,31,0.00,CLR,,0.00,WeatherDisplay:10.37,2013-02-07 07:40:00,
2013-02-07 02:50:00,29.7,3.4,28.08,East,82,0.0,0.0,32,0.00,CLR,,0.00,WeatherDisplay:10.37,2013-02-07 07:50:00,
2013-02-07 02:55:00,29.7,2.7,28.08,East,85,0.0,0.0,31,0.00,CLR,,0.00,WeatherDisplay:10.37,2013-02-07 07:55:00,
2013-02-07 03:00:00,29.6,3.3,28.08,East,85,0.0,2.0,32,0.00,CLR,,0.00,WeatherDisplay:10.37,2013-02-07 08:00:00,
2013-02-07 03:05:00,29.5,3.2,28.08,East,85,1.0,3.0,32,0.00,CLR,,0.00,WeatherDisplay:10.37,2013-02-07 08:05:00,
2013-02-07 03:10:00,29.5,3.2,28.08,East,85,1.0,4.0,32,0.00,CLR,,0.00,WeatherDisplay:10.37,2013-02-07 08:10:00,
2013-02-07 03:15:00,29.5,3.2,28.08,East,84,3.0,5.0,32,0.00,CLR,,0.00,WeatherDisplay:10.37,2013-02-07 08:15:00,
2013-02-07 03:20:00,29.7,3.4,28.08,East,83,3.0,6.0,32,0.00,CLR,,0.00,WeatherDisplay:10.37,2013-02-07 08:20:00,
2013-02-07 03:25:00,29.7,3.4,28.05,East,81,3.0,6.0,32,0.00,CLR,,0.00,WeatherDisplay:10.37,2013-02-07 08:25:00,
2013-02-07 03:30:00,29.8,3.5,28.05,East,85,3.0,6.0,32,0.00,CLR,,0.00,WeatherDisplay:10.37,2013-02-07 08:30:00,
2013-02-07 03:40:00,30.0,3.7,28.05,East,92,3.0,6.0,32,0.00,CLR,,0.00,WeatherDisplay:10.37,2013-02-07 08:40:00,
2013-02-07 03:45:00,30.0,3.7,28.05,ESE,116,3.0,6.0,32,0.00,CLR,,0.00,WeatherDisplay:10.37,2013-02-07 08:45:00,
2013-02-07 03:50:00,29.8,3.5,28.05,ESE,114,3.0,6.0,32,0.00,CLR,,0.00,WeatherDisplay:10.37,2013-02-07 08:50:00,
2013-02-07 03:55:00,29.9,3.5,28.05,ESE,116,3.0,6.0,32,0.00,CLR,,0.00,WeatherDisplay:10.37,2013-02-07 08:55:00,
2013-02-07 04:00:00,29.8,3.5,28.05,ESE,114,3.0,6.0,32,0.00,CLR,,0.00,WeatherDisplay:10.37,2013-02-07 09:00:00,
2013-02-07 04:05:00,29.8,3.5,28.05,ESE,115,3.0,6.0,32,0.00,CLR,,0.00,WeatherDisplay:10.37,2013-02-07 09:05:00,
2013-02-07 04:15:00,29.7,3.4,28.05,SE,127,2.0,6.0,32,0.00,CLR,,0.00,WeatherDisplay:10.37,2013-02-07 09:15:00,
2013-02-07 04:20:00,29.7,3.4,28.05,SE,135,5.0,9.0,32,0.00,CLR,,0.00,WeatherDisplay:10.37,2013-02-07 09:20:00,
2013-02-07 04:25:00,29.7,3.4,28.02,SE,140,3.0,6.0,32,0.00,CLR,,0.00,WeatherDisplay:10.37,2013-02-07 09:25:00,
2013-02-07 04:30:00,29.5,3.2,28.02,SE,140,3.0,6.0,32,0.00,CLR,,0.00,WeatherDisplay:10.37,2013-02-07 09:30:00,
2013-02-07 04:35:00,29.5,3.2,28.02,SE,131,3.0,8.0,32,0.00,CLR,,0.00,WeatherDisplay:10.37,2013-02-07 09:35:00,
2013-02-07 04:40:00,29.7,3.4,28.02,SE,126,3.0,5.0,32,0.00,CLR,,0.00,WeatherDisplay:10.37,2013-02-07 09:40:00,
2013-02-07 04:45:00,29.7,3.4,28.02,ESE,112,3.0,6.0,32,0.00,CLR,,0.00,WeatherDisplay:10.37,2013-02-07 09:45:00,
2013-02-07 04:50:00,29.7,3.4,28.02,ESE,118,3.0,6.0,32,0.00,CLR,,0.00,WeatherDisplay:10.37,2013-02-07 09:50:00,
2013-02-07 04:55:00,29.8,3.5,28.02,ESE,123,3.0,6.0,32,0.00,CLR,,0.00,WeatherDisplay:10.37,2013-02-07 09:55:00,
2013-02-07 05:00:00,29.8,3.5,28.02,ESE,117,2.0,6.0,32,0.00,CLR,,0.00,WeatherDisplay:10.37,2013-02-07 10:00:00,
2013-02-07 05:05:00,29.8,3.5,28.02,ESE,123,3.0,6.0,32,0.00,CLR,,0.00,WeatherDisplay:10.37,2013-02-07 10:05:00,
2013-02-07 05:10:00,29.8,3.5,27.99,ESE,115,2.0,6.0,32,0.00,CLR,,0.00,WeatherDisplay:10.37,2013-02-07 10:10:00,
2013-02-07 05:20:00,30.0,3.7,27.99,ESE,108,3.0,8.0,32,0.00,CLR,,0.00,WeatherDisplay:10.37,2013-02-07 10:20:00,
2013-02-07 05:25:00,30.0,3.7,28.02,East,98,2.0,5.0,32,0.00,CLR,,0.00,WeatherDisplay:10.37,2013-02-07 10:25:00,
2013-02-07 05:30:00,30.0,3.7,28.02,ESE,110,3.0,6.0,32,0.00,CLR,,0.00,WeatherDisplay:10.37,2013-02-07 10:30:00,
2013-02-07 05:35:00,30.0,3.7,28.02,ESE,113,3.0,6.0,32,0.00,CLR,,0.00,WeatherDisplay:10.37,2013-02-07 10:35:00,
2013-02-07 05:40:00,30.2,3.8,28.02,East,97,2.0,6.0,32,0.00,CLR,,0.00,WeatherDisplay:10.37,2013-02-07 10:40:00,
2013-02-07 05:45:00,30.2,3.8,28.02,East,98,2.0,6.0,32,0.00,CLR,,0.00,WeatherDisplay:10.37,2013-02-07 10:45:00,
2013-02-07 05:50:00,30.2,3.8,28.02,ESE,109,2.0,4.0,32,0.00,CLR,,0.00,WeatherDisplay:10.37,2013-02-07 10:50:00,
2013-02-07 06:00:00,30.2,3.8,28.02,East,101,2.0,4.0,32,0.00,CLR,,0.00,WeatherDisplay:10.37,2013-02-07 11:00:00,
2013-02-07 06:05:00,30.2,3.8,28.02,East,89,3.0,4.0,32,0.00,CLR,,0.00,WeatherDisplay:10.37,2013-02-07 11:05:00,
2013-02-07 06:10:00,30.2,3.8,28.02,East,85,2.0,4.0,32,0.00,CLR,,0.00,WeatherDisplay:10.37,2013-02-07 11:10:00,
2013-02-07 06:15:00,30.2,3.8,28.02,East,85,2.0,4.0,32,0.00,CLR,,0.00,WeatherDisplay:10.37,2013-02-07 11:15:00,
2013-02-07 06:20:00,30.2,3.8,28.02,East,83,3.0,5.0,32,0.00,CLR,,0.00,WeatherDisplay:10.37,2013-02-07 11:20:00,
2013-02-07 06:25:00,30.2,3.8,28.02,East,83,3.0,6.0,32,0.00,CLR,,0.00,WeatherDisplay:10.37,2013-02-07 11:25:00,
2013-02-07 06:30:00,30.2,3.8,28.02,East,83,3.0,6.0,32,0.00,CLR,,0.00,WeatherDisplay:10.37,2013-02-07 11:30:00,
2013-02-07 06:40:00,30.2,3.8,28.02,East,82,3.0,4.0,32,0.00,CLR,,0.00,WeatherDisplay:10.37,2013-02-07 11:40:00,
2013-02-07 06:45:00,30.2,3.8,28.02,East,94,2.0,4.0,32,0.00,CLR,,0.00,WeatherDisplay:10.37,2013-02-07 11:45:00,
2013-02-07 06:50:00,30.1,3.7,28.02,East,93,2.0,5.0,32,0.00,CLR,,0.00,WeatherDisplay:10.37,2013-02-07 11:50:00,
2013-02-07 06:55:00,30.2,4.5,28.02,East,85,5.0,6.0,33,0.00,CLR,,0.00,WeatherDisplay:10.37,2013-02-07 11:55:00,
2013-02-07 07:00:00,30.2,3.8,28.02,East,87,5.0,6.0,32,0.00,CLR,,0.00,WeatherDisplay:10.37,2013-02-07 12:00:00,
2013-02-07 07:05:00,30.2,3.8,28.02,East,84,5.0,6.0,32,0.00,CLR,,0.00,WeatherDisplay:10.37,2013-02-07 12:05:00,
2013-02-07 07:10:00,30.2,3.8,28.02,East,82,3.0,6.0,32,0.00,CLR,,0.00,WeatherDisplay:10.37,2013-02-07 12:10:00,
2013-02-07 07:15:00,30.2,3.8,28.02,East,84,5.0,6.0,32,0.00,CLR,,0.00,WeatherDisplay:10.37,2013-02-07 12:15:00,
2013-02-07 07:20:00,30.2,3.8,28.02,East,94,5.0,6.0,32,0.00,CLR,,0.00,WeatherDisplay:10.37,2013-02-07 12:20:00,
2013-02-07 07:25:00,30.2,3.8,27.99,East,94,5.0,8.0,32,0.00,CLR,,0.00,WeatherDisplay:10.37,2013-02-07 12:25:00,
2013-02-07 07:35:00,30.4,3.3,27.99,East,87,5.0,6.0,31,0.00,CLR,,0.00,WeatherDisplay:10.37,2013-02-07 12:35:00,
2013-02-07 07:40:00,30.4,3.3,27.99,East,82,5.0,6.0,31,0.00,CLR,,0.00,WeatherDisplay:10.37,2013-02-07 12:40:00,
2013-02-07 07:45:00,30.4,3.3,27.99,East,82,5.0,7.0,31,0.00,CLR,,0.00,WeatherDisplay:10.37,2013-02-07 12:45:00,
2013-02-07 07:50:00,30.2,3.8,27.99,East,85,3.0,6.0,32,0.00,CLR,,0.00,WeatherDisplay:10.37,2013-02-07 12:50:00,
2013-02-07 07:55:00,30.2,3.8,27.99,East,89,3.0,7.0,32,0.00,CLR,,0.00,WeatherDisplay:10.37,2013-02-07 12:55:00,
2013-02-07 08:00:00,30.2,3.8,27.99,East,94,3.0,7.0,32,0.00,CLR,,0.00,WeatherDisplay:10.37,2013-02-07 13:00:00,
2013-02-07 08:05:00,30.2,3.8,27.99,East,94,5.0,6.0,32,0.00,CLR,,0.00,WeatherDisplay:10.37,2013-02-07 13:05:00,
2013-02-07 08:15:00,30.6,4.1,27.99,ESE,115,5.0,7.0,32,0.00,CLR,,0.00,WeatherDisplay:10.37,2013-02-07 13:15:00,
2013-02-07 08:20:00,30.7,4.3,27.99,ESE,104,3.0,6.0,32,0.00,CLR,,0.00,WeatherDisplay:10.37,2013-02-07 13:20:00,
2013-02-07 08:25:00,30.9,3.8,27.99,East,96,3.0,7.0,31,0.00,CLR,,0.00,WeatherDisplay:10.37,2013-02-07 13:25:00,
2013-02-07 08:30:00,31.1,3.9,27.99,ESE,105,0.0,7.0,31,0.00,CLR,,0.00,WeatherDisplay:10.37,2013-02-07 13:30:00,
2013-02-07 08:35:00,31.5,4.3,27.99,East,101,3.0,5.0,31,0.00,CLR,,0.00,WeatherDisplay:10.37,2013-02-07 13:35:00,
2013-02-07 08:40:00,31.9,4.6,27.97,East,101,3.0,6.0,31,0.00,CLR,,0.00,WeatherDisplay:10.37,2013-02-07 13:40:00,
2013-02-07 08:45:00,32.4,4.4,27.97,ESE,105,5.0,8.0,30,0.00,CLR,,0.00,WeatherDisplay:10.37,2013-02-07 13:45:00,
2013-02-07 08:50:00,32.6,3.0,27.97,ESE,103,3.0,6.0,28,0.00,CLR,,0.00,WeatherDisplay:10.37,2013-02-07 13:50:00,
2013-02-07 09:00:00,33.6,1.5,27.97,East,100,3.0,6.0,25,0.00,CLR,,0.00,WeatherDisplay:10.37,2013-02-07 14:00:00,
2013-02-07 09:05:00,34.0,-1.0,27.97,East,97,5.0,6.0,22,0.00,CLR,,0.00,WeatherDisplay:10.37,2013-02-07 14:05:00,
2013-02-07 09:10:00,34.5,-0.5,27.97,East,91,5.0,6.0,22,0.00,CLR,,0.00,WeatherDisplay:10.37,2013-02-07 14:10:00,
2013-02-07 09:20:00,34.0,-0.9,27.97,East,86,3.0,6.0,22,0.00,CLR,,0.00,WeatherDisplay:10.37,2013-02-07 14:20:00,
2013-02-07 09:25:00,33.6,-0.3,27.97,East,91,3.0,5.0,23,0.00,CLR,,0.00,WeatherDisplay:10.37,2013-02-07 14:25:00,
2013-02-07 09:30:00,34.2,2.0,27.97,ESE,115,3.0,8.0,25,0.00,CLR,,0.00,WeatherDisplay:10.37,2013-02-07 14:30:00,
2013-02-07 09:35:00,35.1,0.0,27.97,ESE,115,3.0,6.0,22,0.00,CLR,,0.00,WeatherDisplay:10.37,2013-02-07 14:35:00,
2013-02-07 09:40:00,36.2,1.0,27.97,ESE,119,3.0,6.0,22,0.00,CLR,,0.00,WeatherDisplay:10.37,2013-02-07 14:40:00,
2013-02-07 09:45:00,37.3,0.9,27.97,ESE,113,3.0,5.0,21,0.00,CLR,,0.00,WeatherDisplay:10.37,2013-02-07 14:45:00,
2013-02-07 09:50:00,37.9,1.4,27.97,ESE,112,0.0,5.0,21,0.00,CLR,,0.00,WeatherDisplay:10.37,2013-02-07 14:50:00,
2013-02-07 10:00:00,38.8,0.0,27.97,ESE,111,3.0,6.0,19,0.00,CLR,,0.00,WeatherDisplay:10.37,2013-02-07 15:00:00,
2013-02-07 10:05:00,39.3,-0.8,27.97,ESE,110,3.0,5.0,18,0.00,CLR,,0.00,WeatherDisplay:10.37,2013-02-07 15:05:00,
2013-02-07 10:10:00,40.0,-0.2,27.97,ESE,117,2.0,4.0,18,0.00,CLR,,0.00,WeatherDisplay:10.37,2013-02-07 15:10:00,
2013-02-07 10:15:00,40.5,0.2,27.97,ESE,114,0.0,6.0,18,0.00,CLR,,0.00,WeatherDisplay:10.37,2013-02-07 15:15:00,
2013-02-07 10:25:00,41.0,0.6,27.97,ESE,110,0.0,6.0,18,0.00,CLR,,0.00,WeatherDisplay:10.37,2013-02-07 15:25:00,
2013-02-07 10:30:00,41.2,0.8,27.97,SE,125,2.0,6.0,18,0.00,CLR,,0.00,WeatherDisplay:10.37,2013-02-07 15:30:00,
2013-02-07 10:35:00,41.5,1.1,27.97,ESE,122,3.0,6.0,18,0.00,CLR,,0.00,WeatherDisplay:10.37,2013-02-07 15:35:00,
2013-02-07 10:40:00,41.8,1.3,27.97,ESE,120,5.0,6.0,18,0.00,CLR,,0.00,WeatherDisplay:10.37,2013-02-07 15:40:00,
2013-02-07 10:45:00,42.0,1.5,27.97,ESE,108,3.0,6.0,18,0.00,CLR,,0.00,WeatherDisplay:10.37,2013-02-07 15:45:00,
2013-02-07 10:50:00,42.4,1.8,27.97,ESE,105,2.0,6.0,18,0.00,CLR,,0.00,WeatherDisplay:10.37,2013-02-07 15:50:00,
2013-02-07 10:55:00,43.2,2.4,27.99,ESE,118,3.0,6.0,18,0.00,CLR,,0.00,WeatherDisplay:10.37,2013-02-07 15:55:00,
2013-02-07 11:05:00,43.7,2.9,27.99,ESE,118,3.0,6.0,18,0.00,CLR,,0.00,WeatherDisplay:10.37,2013-02-07 16:05:00,
2013-02-07 11:15:00,42.4,1.8,27.97,ESE,113,3.0,6.0,18,0.00,CLR,,0.00,WeatherDisplay:10.37,2013-02-07 16:15:00,
2013-02-07 11:20:00,42.7,2.1,27.97,ESE,121,3.0,6.0,18,0.00,CLR,,0.00,WeatherDisplay:10.37,2013-02-07 16:20:00,
2013-02-07 11:25:00,43.1,2.4,27.93,ESE,115,3.0,6.0,18,0.00,CLR,,0.00,WeatherDisplay:10.37,2013-02-07 16:25:00,
2013-02-07 11:30:00,43.7,2.9,27.93,ESE,120,3.0,6.0,18,0.00,CLR,,0.00,WeatherDisplay:10.37,2013-02-07 16:30:00,
2013-02-07 11:40:00,44.2,3.3,27.93,SE,128,3.0,6.0,18,0.00,CLR,,0.00,WeatherDisplay:10.37,2013-02-07 16:40:00,
2013-02-07 11:45:00,44.5,3.5,27.93,ESE,119,3.0,6.0,18,0.00,CLR,,0.00,WeatherDisplay:10.37,2013-02-07 16:45:00,
2013-02-07 11:50:00,44.4,3.5,27.93,East,97,3.0,6.0,18,0.00,CLR,,0.00,WeatherDisplay:10.37,2013-02-07 16:50:00,
2013-02-07 11:55:00,44.8,2.5,27.97,ESE,112,2.0,7.0,17,0.00,CLR,,0.00,WeatherDisplay:10.37,2013-02-07 16:55:00,
2013-02-07 12:00:00,45.3,3.0,27.97,ESE,120,2.0,6.0,17,0.00,CLR,,0.00,WeatherDisplay:10.37,2013-02-07 17:00:00,
2013-02-07 12:10:00,45.5,3.1,27.93,ESE,113,2.0,7.0,17,0.00,CLR,,0.00,WeatherDisplay:10.37,2013-02-07 17:10:00,
2013-02-07 12:15:00,46.0,3.6,27.93,SE,129,3.0,7.0,17,0.00,CLR,,0.00,WeatherDisplay:10.37,2013-02-07 17:15:00,
2013-02-07 12:25:00,45.5,3.1,27.91,ESE,105,3.0,6.0,17,0.00,CLR,,0.00,WeatherDisplay:10.37,2013-02-07 17:25:00,
2013-02-07 12:30:00,45.7,3.3,27.91,ESE,103,3.0,6.0,17,0.00,CLR,,0.00,WeatherDisplay:10.37,2013-02-07 17:30:00,
2013-02-07 12:35:00,45.9,3.4,27.91,East,85,5.0,6.0,17,0.00,CLR,,0.00,WeatherDisplay:10.37,2013-02-07 17:35:00,
2013-02-07 12:40:00,46.0,3.5,27.93,East,81,5.0,8.0,17,0.00,CLR,,0.00,WeatherDisplay:10.37,2013-02-07 17:40:00,
2013-02-07 12:45:00,45.7,3.3,27.93,East,91,3.0,6.0,17,0.00,CLR,,0.00,WeatherDisplay:10.37,2013-02-07 17:45:00,
2013-02-07 12:50:00,46.2,3.7,27.93,East,91,3.0,6.0,17,0.00,CLR,,0.00,WeatherDisplay:10.37,2013-02-07 17:50:00,
2013-02-07 13:00:00,46.4,3.9,27.91,East,85,2.0,6.0,17,0.00,CLR,,0.00,WeatherDisplay:10.37,2013-02-07 18:00:00,
2013-02-07 13:05:00,46.9,4.3,27.91,East,86,3.0,6.0,17,0.00,CLR,,0.00,WeatherDisplay:10.37,2013-02-07 18:05:00,
2013-02-07 13:10:00,47.3,4.6,27.91,East,89,3.0,6.0,17,0.00,CLR,,0.00,WeatherDisplay:10.37,2013-02-07 18:10:00,
2013-02-07 13:15:00,47.3,4.6,27.91,East,96,3.0,6.0,17,0.00,CLR,,0.00,WeatherDisplay:10.37,2013-02-07 18:15:00,
2013-02-07 13:20:00,47.3,4.6,27.91,East,89,3.0,6.0,17,0.00,CLR,,0.00,WeatherDisplay:10.37,2013-02-07 18:20:00,
2013-02-07 13:25:00,47.4,4.7,27.88,East,79,3.0,6.0,17,0.00,CLR,,0.00,WeatherDisplay:10.37,2013-02-07 18:25:00,
2013-02-07 13:30:00,47.8,5.0,27.88,ENE,75,5.0,6.0,17,0.00,CLR,,0.00,WeatherDisplay:10.37,2013-02-07 18:30:00,
2013-02-07 13:35:00,48.0,5.2,27.88,East,83,2.0,6.0,17,0.00,CLR,,0.00,WeatherDisplay:10.37,2013-02-07 18:35:00,
2013-02-07 13:45:00,48.2,4.0,27.88,East,89,3.0,6.0,16,0.00,CLR,,0.00,WeatherDisplay:10.37,2013-02-07 18:45:00,
2013-02-07 13:50:00,48.9,4.6,27.88,ESE,104,1.0,5.0,16,0.00,CLR,,0.00,WeatherDisplay:10.37,2013-02-07 18:50:00,
2013-02-07 13:55:00,49.1,4.7,27.88,East,84,3.0,6.0,16,0.00,CLR,,0.00,WeatherDisplay:10.37,2013-02-07 18:55:00,
2013-02-07 14:00:00,49.1,4.8,27.88,East,81,3.0,5.0,16,0.00,CLR,,0.00,WeatherDisplay:10.37,2013-02-07 19:00:00,
2013-02-07 14:05:00,49.2,4.8,27.88,East,90,3.0,6.0,16,0.00,CLR,,0.00,WeatherDisplay:10.37,2013-02-07 19:05:00,
2013-02-07 14:15:00,49.2,4.8,27.88,East,97,3.0,6.0,16,0.00,CLR,,0.00,WeatherDisplay:10.37,2013-02-07 19:15:00,
2013-02-07 14:25:00,49.5,5.0,27.88,East,95,3.0,6.0,16,0.00,CLR,,0.00,WeatherDisplay:10.37,2013-02-07 19:25:00,
2013-02-07 14:30:00,49.8,5.3,27.88,East,90,2.0,6.0,16,0.00,CLR,,0.00,WeatherDisplay:10.37,2013-02-07 19:30:00,
2013-02-07 14:40:00,50.0,5.5,27.85,East,85,1.0,6.0,16,0.00,CLR,,0.00,WeatherDisplay:10.37,2013-02-07 19:40:00,
2013-02-07 14:50:00,50.0,5.5,27.85,East,86,2.0,6.0,16,0.00,CLR,,0.00,WeatherDisplay:10.37,2013-02-07 19:50:00,
2013-02-07 14:55:00,50.2,5.6,27.85,East,88,3.0,6.0,16,0.00,CLR,,0.00,WeatherDisplay:10.37,2013-02-07 19:55:00,
2013-02-07 15:00:00,50.2,5.6,27.85,ESE,103,3.0,6.0,16,0.00,CLR,,0.00,WeatherDisplay:10.37,2013-02-07 20:00:00,
2013-02-07 15:05:00,50.2,5.6,27.85,ESE,105,3.0,6.0,16,0.00,CLR,,0.00,WeatherDisplay:10.37,2013-02-07 20:05:00,
2013-02-07 15:15:00,50.0,5.5,27.85,East,87,3.0,6.0,16,0.00,CLR,,0.00,WeatherDisplay:10.37,2013-02-07 20:15:00,
2013-02-07 15:20:00,50.1,5.6,27.85,East,84,5.0,6.0,16,0.00,CLR,,0.00,WeatherDisplay:10.37,2013-02-07 20:20:00,
2013-02-07 15:30:00,50.2,5.7,27.82,East,79,5.0,6.0,16,0.00,CLR,,0.00,WeatherDisplay:10.37,2013-02-07 20:30:00,
2013-02-07 15:35:00,50.4,5.8,27.82,East,90,5.0,8.0,16,0.00,CLR,,0.00,WeatherDisplay:10.37,2013-02-07 20:35:00,
2013-02-07 15:40:00,50.4,5.8,27.85,East,97,3.0,6.0,16,0.00,CLR,,0.00,WeatherDisplay:10.37,2013-02-07 20:40:00,
2013-02-07 15:45:00,50.4,5.8,27.85,East,96,3.0,6.0,16,0.00,CLR,,0.00,WeatherDisplay:10.37,2013-02-07 20:45:00,
2013-02-07 15:50:00,50.7,6.1,27.85,ESE,112,3.0,5.0,16,0.00,CLR,,0.00,WeatherDisplay:10.37,2013-02-07 20:50:00,
2013-02-07 16:00:00,51.1,6.4,27.85,ESE,105,3.0,6.0,16,0.00,CLR,,0.00,WeatherDisplay:10.37,2013-02-07 21:00:00,
2013-02-07 16:05:00,51.3,6.5,27.85,ESE,110,3.0,6.0,16,0.00,CLR,,0.00,WeatherDisplay:10.37,2013-02-07 21:05:00,
2013-02-07 16:10:00,51.3,6.5,27.82,ESE,122,1.0,6.0,16,0.00,CLR,,0.00,WeatherDisplay:10.37,2013-02-07 21:10:00,
2013-02-07 16:15:00,51.3,6.5,27.82,ESE,120,3.0,6.0,16,0.00,CLR,,0.00,WeatherDisplay:10.37,2013-02-07 21:15:00,
2013-02-07 16:20:00,51.3,6.5,27.82,ESE,117,3.0,5.0,16,0.00,CLR,,0.00,WeatherDisplay:10.37,2013-02-07 21:20:00,
2013-02-07 16:25:00,51.1,6.4,27.82,ESE,108,3.0,6.0,16,0.00,CLR,,0.00,WeatherDisplay:10.37,2013-02-07 21:25:00,
2013-02-07 16:30:00,50.6,6.0,27.82,East,92,3.0,4.0,16,0.00,CLR,,0.00,WeatherDisplay:10.37,2013-02-07 21:30:00,
2013-02-07 16:40:00,49.9,5.4,27.82,ESE,102,0.0,4.0,16,0.00,CLR,,0.00,WeatherDisplay:10.37,2013-02-07 21:40:00,
2013-02-07 16:45:00,50.2,5.6,27.82,ESE,115,2.0,6.0,16,0.00,CLR,,0.00,WeatherDisplay:10.37,2013-02-07 21:45:00,
2013-02-07 16:50:00,50.5,5.9,27.82,SE,129,2.0,5.0,16,0.00,CLR,,0.00,WeatherDisplay:10.37,2013-02-07 21:50:00,
2013-02-07 16:55:00,50.5,5.9,27.82,SE,142,1.0,6.0,16,0.00,CLR,,0.00,WeatherDisplay:10.37,2013-02-07 21:55:00,
2013-02-07 17:00:00,50.5,5.9,27.82,SSE,151,3.0,6.0,16,0.00,CLR,,0.00,WeatherDisplay:10.37,2013-02-07 22:00:00,
2013-02-07 17:05:00,50.2,5.6,27.82,SE,138,3.0,6.0,16,0.00,CLR,,0.00,WeatherDisplay:10.37,2013-02-07 22:05:00,
2013-02-07 17:10:00,50.0,5.5,27.82,SE,134,5.0,6.0,16,0.00,CLR,,0.00,WeatherDisplay:10.37,2013-02-07 22:10:00,
2013-02-07 17:15:00,49.6,5.2,27.82,SE,145,2.0,6.0,16,0.00,CLR,,0.00,WeatherDisplay:10.37,2013-02-07 22:15:00,
2013-02-07 17:20:00,49.3,4.9,27.82,SE,143,2.0,5.0,16,0.00,CLR,,0.00,WeatherDisplay:10.37,2013-02-07 22:20:00,
2013-02-07 17:25:00,48.9,4.6,27.82,SE,143,2.0,4.0,16,0.00,CLR,,0.00,WeatherDisplay:10.37,2013-02-07 22:25:00,
2013-02-07 17:30:00,48.6,4.4,27.82,SSE,148,2.0,4.0,16,0.00,CLR,,0.00,WeatherDisplay:10.37,2013-02-07 22:30:00,
2013-02-07 17:35:00,48.2,4.0,27.82,SE,140,2.0,3.0,16,0.00,CLR,,0.00,WeatherDisplay:10.37,2013-02-07 22:35:00,
2013-02-07 17:40:00,47.6,4.9,27.82,ESE,111,2.0,5.0,17,0.00,CLR,,0.00,WeatherDisplay:10.37,2013-02-07 22:40:00,
2013-02-07 17:45:00,47.0,4.3,27.82,East,98,2.0,6.0,17,0.00,CLR,,0.00,WeatherDisplay:10.37,2013-02-07 22:45:00,
2013-02-07 17:50:00,46.4,3.9,27.82,East,101,0.0,3.0,17,0.00,CLR,,0.00,WeatherDisplay:10.37,2013-02-07 22:50:00,
2013-02-07 17:55:00,45.9,3.4,27.82,ESE,107,0.0,0.0,17,0.00,CLR,,0.00,WeatherDisplay:10.37,2013-02-07 22:55:00,
2013-02-07 18:00:00,45.1,2.8,27.82,ESE,106,0.0,0.0,17,0.00,CLR,,0.00,WeatherDisplay:10.37,2013-02-07 23:00:00,
2013-02-07 18:10:00,43.7,2.9,27.82,ESE,121,0.0,3.0,18,0.00,CLR,,0.00,WeatherDisplay:10.37,2013-02-07 23:10:00,
2013-02-07 18:15:00,43.3,2.6,27.82,SE,127,0.0,3.0,18,0.00,CLR,,0.00,WeatherDisplay:10.37,2013-02-07 23:15:00,
2013-02-07 18:25:00,42.8,2.1,27.79,ESE,118,2.0,4.0,18,0.00,CLR,,0.00,WeatherDisplay:10.37,2013-02-07 23:25:00,
2013-02-07 18:30:00,42.3,1.7,27.79,ESE,113,0.0,3.0,18,0.00,CLR,,0.00,WeatherDisplay:10.37,2013-02-07 23:30:00,
2013-02-07 18:40:00,41.5,4.4,27.79,ESE,117,0.0,3.0,21,0.00,CLR,,0.00,WeatherDisplay:10.37,2013-02-07 23:40:00,
2013-02-07 18:45:00,41.5,4.4,27.79,ESE,117,0.0,3.0,21,0.00,CLR,,0.00,WeatherDisplay:10.37,2013-02-07 23:45:00,
2013-02-07 18:50:00,41.7,4.6,27.79,ESE,117,0.0,4.0,21,0.00,CLR,,0.00,WeatherDisplay:10.37,2013-02-07 23:50:00,
2013-02-07 18:55:00,41.7,4.6,27.79,ESE,117,0.0,3.0,21,0.00,CLR,,0.00,WeatherDisplay:10.37,2013-02-07 23:55:00,
2013-02-07 19:00:00,41.7,4.6,27.79,ESE,115,1.0,4.0,21,0.00,CLR,,0.00,WeatherDisplay:10.37,2013-02-08 00:00:00,
2013-02-07 19:10:00,42.1,4.9,27.79,ESE,110,3.0,4.0,21,0.00,CLR,,0.00,WeatherDisplay:10.37,2013-02-08 00:10:00,
2013-02-07 19:15:00,42.3,5.0,27.79,East,100,0.0,5.0,21,0.00,CLR,,0.00,WeatherDisplay:10.37,2013-02-08 00:15:00,
2013-02-07 19:25:00,42.3,5.0,27.79,SE,136,0.0,4.0,21,0.00,CLR,,0.00,WeatherDisplay:10.37,2013-02-08 00:25:00,
2013-02-07 19:30:00,42.4,5.2,27.79,SE,138,0.0,4.0,21,0.00,CLR,,0.00,WeatherDisplay:10.37,2013-02-08 00:30:00,
2013-02-07 19:35:00,42.5,5.3,27.79,SE,136,0.0,4.0,21,0.00,CLR,,0.00,WeatherDisplay:10.37,2013-02-08 00:35:00,
2013-02-07 19:40:00,42.8,4.4,27.76,ESE,122,0.0,3.0,20,0.00,CLR,,0.00,WeatherDisplay:10.37,2013-02-08 00:40:00,
2013-02-07 19:50:00,42.6,5.3,27.76,ESE,117,0.0,3.0,21,0.00,CLR,,0.00,WeatherDisplay:10.37,2013-02-08 00:50:00,
2013-02-07 19:55:00,42.4,5.2,27.76,ESE,117,0.0,3.0,21,0.00,CLR,,0.00,WeatherDisplay:10.37,2013-02-08 00:55:00,
2013-02-07 20:00:00,42.4,5.2,27.76,ESE,123,0.0,4.0,21,0.00,CLR,,0.00,WeatherDisplay:10.37,2013-02-08 01:00:00,
2013-02-07 20:05:00,42.3,5.0,27.76,SE,136,0.0,3.0,21,0.00,CLR,,0.00,WeatherDisplay:10.37,2013-02-08 01:05:00,
2013-02-07 20:10:00,42.3,5.0,27.76,SE,143,2.0,6.0,21,0.00,CLR,,0.00,WeatherDisplay:10.37,2013-02-08 01:10:00,
2013-02-07 20:15:00,42.3,5.0,27.76,SSE,147,0.0,4.0,21,0.00,CLR,,0.00,WeatherDisplay:10.37,2013-02-08 01:15:00,
2013-02-07 20:20:00,42.3,5.0,27.76,SSE,150,2.0,6.0,21,0.00,CLR,,0.00,WeatherDisplay:10.37,2013-02-08 01:20:00,
2013-02-07 20:25:00,42.4,5.2,27.73,SSE,149,2.0,6.0,21,0.00,CLR,,0.00,WeatherDisplay:10.37,2013-02-08 01:25:00,
2013-02-07 20:30:00,42.4,5.2,27.73,SSE,150,3.0,6.0,21,0.00,CLR,,0.00,WeatherDisplay:10.37,2013-02-08 01:30:00,
2013-02-07 20:35:00,42.6,5.3,27.73,SSE,150,3.0,6.0,21,0.00,CLR,,0.00,WeatherDisplay:10.37,2013-02-08 01:35:00,
2013-02-07 20:40:00,42.6,5.3,27.73,SSE,153,5.0,7.0,21,0.00,CLR,,0.00,WeatherDisplay:10.37,2013-02-08 01:40:00,
2013-02-07 20:45:00,42.6,5.3,27.73,SSE,148,3.0,7.0,21,0.00,CLR,,0.00,WeatherDisplay:10.37,2013-02-08 01:45:00,
2013-02-07 20:50:00,42.6,5.3,27.73,SSE,152,3.0,6.0,21,0.00,CLR,,0.00,WeatherDisplay:10.37,2013-02-08 01:50:00,
2013-02-07 20:55:00,42.4,5.2,27.73,SSE,156,3.0,8.0,21,0.00,CLR,,0.00,WeatherDisplay:10.37,2013-02-08 01:55:00,
2013-02-07 21:00:00,42.4,5.2,27.73,SSE,156,3.0,6.0,21,0.00,CLR,,0.00,WeatherDisplay:10.37,2013-02-08 02:00:00,
2013-02-07 21:05:00,42.6,5.3,27.73,SSE,165,0.0,3.0,21,0.00,CLR,,0.00,WeatherDisplay:10.37,2013-02-08 02:05:00,
2013-02-07 21:10:00,42.6,5.3,27.73,SSE,162,2.0,6.0,21,0.00,CLR,,0.00,WeatherDisplay:10.37,2013-02-08 02:10:00,
2013-02-07 21:15:00,42.8,4.4,27.73,SSE,149,5.0,6.0,20,0.00,CLR,,0.00,WeatherDisplay:10.37,2013-02-08 02:15:00,
2013-02-07 21:20:00,43.0,4.6,27.73,SE,142,3.0,6.0,20,0.00,CLR,,0.00,WeatherDisplay:10.37,2013-02-08 02:20:00,
2013-02-07 21:25:00,43.3,4.9,27.73,SSE,148,3.0,6.0,20,0.00,CLR,,0.00,WeatherDisplay:10.37,2013-02-08 02:25:00,
2013-02-07 21:30:00,43.5,5.0,27.73,SSE,151,5.0,6.0,20,0.00,CLR,,0.00,WeatherDisplay:10.37,2013-02-08 02:30:00,
2013-02-07 21:35:00,43.9,5.3,27.73,SSE,155,2.0,6.0,20,0.00,CLR,,0.00,WeatherDisplay:10.37,2013-02-08 02:35:00,
2013-02-07 21:40:00,44.2,5.6,27.73,SSE,164,0.0,3.0,20,0.00,CLR,,0.00,WeatherDisplay:10.37,2013-02-08 02:40:00,
2013-02-07 21:50:00,44.1,5.5,27.73,SW,224,0.0,3.0,20,0.00,CLR,,0.00,WeatherDisplay:10.37,2013-02-08 02:50:00,
2013-02-07 21:55:00,43.7,8.3,27.76,WSW,238,3.0,6.0,23,0.00,CLR,,0.00,WeatherDisplay:10.37,2013-02-08 02:55:00,
2013-02-07 22:00:00,43.2,12.2,27.76,WSW,242,5.0,6.0,28,0.00,CLR,,0.00,WeatherDisplay:10.37,2013-02-08 03:00:00,
2013-02-07 22:05:00,42.8,12.7,27.76,WSW,244,5.0,6.0,29,0.00,CLR,,0.00,WeatherDisplay:10.37,2013-02-08 03:05:00,
2013-02-07 22:10:00,42.4,13.1,27.76,WSW,245,3.0,6.0,30,0.00,CLR,,0.00,WeatherDisplay:10.37,2013-02-08 03:10:00,
2013-02-07 22:15:00,42.3,13.7,27.76,WSW,241,3.0,6.0,31,0.00,CLR,,0.00,WeatherDisplay:10.37,2013-02-08 03:15:00,
2013-02-07 22:20:00,42.2,14.4,27.76,WSW,237,3.0,6.0,32,0.00,CLR,,0.00,WeatherDisplay:10.37,2013-02-08 03:20:00,
2013-02-07 22:25:00,42.1,14.3,27.76,WSW,239,3.0,6.0,32,0.00,CLR,,0.00,WeatherDisplay:10.37,2013-02-08 03:25:00,
2013-02-07 22:30:00,41.7,15.4,27.76,WSW,247,3.0,6.0,34,0.00,CLR,,0.00,WeatherDisplay:10.37,2013-02-08 03:30:00,
2013-02-07 22:35:00,41.5,17.2,27.76,WSW,256,5.0,6.0,37,0.00,CLR,,0.00,WeatherDisplay:10.37,2013-02-08 03:35:00,
2013-02-07 22:40:00,41.4,17.6,27.73,WSW,258,3.0,6.0,38,0.00,CLR,,0.00,WeatherDisplay:10.37,2013-02-08 03:40:00,
2013-02-07 22:45:00,41.2,17.5,27.73,WSW,258,3.0,6.0,38,0.00,CLR,,0.00,WeatherDisplay:10.37,2013-02-08 03:45:00,
2013-02-07 22:50:00,41.2,18.1,27.73,WSW,250,5.0,8.0,39,0.00,CLR,,0.00,WeatherDisplay:10.37,2013-02-08 03:50:00,
2013-02-07 23:00:00,41.5,18.4,27.73,WSW,242,3.0,8.0,39,0.00,CLR,,0.00,WeatherDisplay:10.37,2013-02-08 04:00:00,
2013-02-07 23:05:00,41.5,18.4,27.73,WSW,246,2.0,5.0,39,0.00,CLR,,0.00,WeatherDisplay:10.37,2013-02-08 04:05:00,
2013-02-07 23:10:00,41.5,18.4,27.70,SW,229,0.0,4.0,39,0.00,CLR,,0.00,WeatherDisplay:10.37,2013-02-08 04:10:00,
2013-02-07 23:15:00,41.4,18.2,27.70,SW,218,3.0,4.0,39,0.00,CLR,,0.00,WeatherDisplay:10.37,2013-02-08 04:15:00,
2013-02-07 23:20:00,41.2,18.1,27.70,WSW,239,0.0,4.0,39,0.00,CLR,,0.00,WeatherDisplay:10.37,2013-02-08 04:20:00,
2013-02-07 23:25:00,41.2,18.1,27.70,WSW,248,0.0,0.0,39,0.00,CLR,,0.00,WeatherDisplay:10.37,2013-02-08 04:25:00,
2013-02-07 23:30:00,41.2,18.1,27.70,WSW,248,0.0,4.0,39,0.00,CLR,,0.00,WeatherDisplay:10.37,2013-02-08 04:30:00,
2013-02-07 23:35:00,41.0,17.9,27.70,SW,232,2.0,4.0,39,0.00,CLR,,0.00,WeatherDisplay:10.37,2013-02-08 04:35:00,
2013-02-07 23:40:00,41.0,17.9,27.70,WSW,237,3.0,8.0,39,0.00,CLR,,0.00,WeatherDisplay:10.37,2013-02-08 04:40:00,
2013-02-07 23:45:00,41.0,19.1,27.70,WSW,249,6.0,8.0,41,0.00,CLR,,0.00,WeatherDisplay:10.37,2013-02-08 04:45:00,
2013-02-07 23:50:00,41.0,20.7,27.70,WSW,251,6.0,10.0,44,0.00,CLR,,0.00,WeatherDisplay:10.37,2013-02-08 04:50:00,
2013-02-07 23:55:00,41.0,22.8,27.73,WSW,253,5.0,9.0,48,0.00,CLR,,0.00,WeatherDisplay:10.37,2013-02-08 04:55:00,